Regional Weather Roundup
Issued by NWS

Home | Current Version | Previous Version | Graphics & Text | Print | Product List | Glossary On
Versions: 1 2 3 4 5 6 7 8 9 10 11 12 13 14 15 16 17 18 19 20 21 22 23 24 25 26 27 28 29 30 31 32 33 34 35 36 37 38 39 40 41 42 43 44 45 46 47 48 49 50
000
ASUS43 KBIS 280559
RWRND

NORTH DAKOTA REGIONAL WEATHER ROUNDUP
NATIONAL WEATHER SERVICE BISMARCK ND
1200 AM CST SUN DEC 28 2014

NOTE: "FAIR" INDICATES FEW OR NO CLOUDS BELOW 12,000 FEET WITH NO
SIGNIFICANT WEATHER AND/OR OBSTRUCTIONS TO VISIBILITY.


NDZ001>003-009>011-017-280700-
NORTHWEST NORTH DAKOTA

CITY           SKY/WX    TMP DP  RH WIND       PRES   REMARKS
WILLISTON      MOCLDY    16  11  80 N8        30.02R WCI   5
6HR MIN TEMP:  16; 6HR MAX TEMP:  24; 6HR PCP: TRACE;

MINOT          CLOUDY    10   5  80 N9        30.07R WCI  -3
$$

NDZ018>021-031>035-040>046-280700-
SOUTHWEST NORTH DAKOTA

CITY           SKY/WX    TMP DP  RH WIND       PRES   REMARKS
BISMARCK       CLOUDY    15  12  88 CALM      30.05S
6HR MIN TEMP:  12; 6HR MAX TEMP:  23;

GARRISON         N/A     15  12  88 NE9       30.03R WCI   3
6HR MIN TEMP:  14; 6HR MAX TEMP:  19;

HETTINGER ARPT PTCLDY    17  13  84 CALM      29.98S
$$

NDZ004>008-012>016-024-026-027-054-280700-
NORTHEAST NORTH DAKOTA

CITY           SKY/WX    TMP DP  RH WIND       PRES   REMARKS
GRAND FORKS    CLOUDY     8   4  83 N15       30.12R WCI  -9
GRND FRKS AFB  CLOUDY     9   5  85 N17       30.12R WCI -10
DEVILS LAKE    CLOUDY     5   0  78 NE12      30.07R WCI -11
$$

NDZ022-023-025-028>030-036>039-047>053-280700-
SOUTHEAST NORTH DAKOTA

CITY           SKY/WX    TMP DP  RH WIND       PRES   REMARKS
FARGO          CLOUDY    23  19  85 NW5       30.04S WCI  17
6HR MIN TEMP:  21; 6HR MAX TEMP:  24;

$$




USA.gov is the U.S. government's official web portal to all federal, state and local government web resources and services.